Location: Unspecified
(40.7945°N, 0.0000°E)
Time: 06:43:25
(UTC+00:00)

Explorer 7 - Pass Details

Date: 23 January 2021
Orbit: 484 x 677 km, 50.3° (Epoch: 28 February)

Event Time Altitude Azimuth Distance (km) Brightness Sun altitude
Rises 06:02:16 0° 264° (W) 2,573 - -14.3°
Reaches altitude 10° 06:04:33 10° 274° (W) 1,712 - -13.9°
Exits shadow 06:06:22 23° 294° (WNW) 1,137 7.8 -13.5°
Maximum altitude 06:08:05 33° 340° (NNW) 896 7.6 -13.2°
Drops below altitude 10° 06:11:48 10° 46° (NE) 1,803 9.9 -12.5°
Sets 06:14:16 0° 56° (NE) 2,734 11.0 -12.1°
